Location: Proctor
(47.8934°N, 114.3048°W)
Time: 11:36:05
(UTC+00:00)

Transit 4A - Pass Details

Date: 29 June 2024
Orbit: 870 x 973 km, 66.8° (Epoch: 13 July)

Event Time Altitude Azimuth Distance (km) Brightness Sun altitude
Rises 07:45:11 0° 289° (WNW) 3,461 11.1 -18.9°
Reaches altitude 10° 07:49:04 10° 314° (NW) 2,529 10.7 -18.9°
Maximum altitude 07:51:59 14° 345° (NNW) 2,272 10.9 -18.9°
Drops below altitude 10° 07:54:54 10° 15° (NNE) 2,547 11.4 -18.8°
Sets 07:58:52 0° 41° (NE) 3,505 11.8 -18.8°
